Tracking 25953 objects as of 16-Aug-2022
HD Live streaming from Space Station
objects crossing your sky now

STARLINK-3980

Track STARLINK-3980 now!
10-day predictions
STARLINK-3980 is classified as:


NORAD ID: 52611
Int'l Code: 2022-052P
Perigee: 545.8 km
Apogee: 548.0 km
Inclination: 53.2 °
Period: 95.4 minutes
Semi major axis: 6917 km
RCS: Unknown
Launch date: May 14, 2022
Source: United States (US)
Launch site: AIR FORCE EASTERN TEST RANGE (AFETR)
aabbcc
Your satellite tracking list
Your tracking list is empty




NASA's NSSDC Master Catalog

Two Line Element Set (TLE):
1 52611U 22052P   22227.91667824  .00019162  00000-0  12189-2 0  9996
2 52611  53.2159   8.0017 0001619  49.9845 241.1691 15.08835557  1309
Source of the keplerian elements: AFSPC